EST,Max TemperatureF,Mean TemperatureF,Min TemperatureF,Max Dew PointF,MeanDew PointF,Min DewpointF,Max Humidity, Mean Humidity, Min Humidity, Max Sea Level PressureIn, Mean Sea Level PressureIn, Min Sea Level PressureIn, Max VisibilityMiles, Mean VisibilityMiles, Min VisibilityMiles, Max Wind SpeedMPH, Mean Wind SpeedMPH, Max Gust SpeedMPH,PrecipitationIn, CloudCover, Events, WindDirDegrees
2014-1-1,17,16,14,16,12,9,93,87,79,30.34,30.27,30.15,10,3,0,12,5,17,0.00,8,Snow,32
2014-1-2,17,11,3,14,8,-6,92,81,66,30.22,30.09,30.01,10,4,1,23,12,30,0.00,7,Snow,19
2014-1-3,12,-1,-14,1,-5,-18,92,69,57,30.42,30.33,30.17,10,10,3,15,8,18,0.00,0,,251
2014-1-4,30,20,10,23,12,1,75,63,47,30.16,30.00,29.91,10,10,10,20,12,25,0.00,2,,201
2014-1-5,33,27,21,32,28,19,100,93,69,30.03,29.82,29.49,10,3,0,21,3,30,0.00,8,Snow,36
2014-1-6,21,4,-14,18,-5,-22,93,76,64,30.12,29.90,29.54,10,4,0,28,20,41,0.00,4,Snow,259
2014-1-7,-2,-8,-14,-9,-15,-20,84,70,64,30.33,30.22,30.11,10,7,2,24,17,32,0.00,0,,233
2014-1-8,17,2,-13,7,-3,-18,92,80,63,30.49,30.37,30.32,10,10,4,8,1,,0.00,1,,255
2014-1-9,26,8,-11,27,5,-17,100,87,77,30.56,30.46,30.27,10,7,1,8,0,,0.00,2,Snow,117
2014-1-10,37,32,26,37,33,27,100,95,87,30.25,30.03,29.68,5,3,0,10,2,,0.00,8,Rain-Snow,150
2014-1-11,42,38,33,43,37,28,100,94,75,29.65,29.48,29.32,10,5,0,20,10,30,0.00,8,Fog-Rain,231
2014-1-12,37,35,33,30,29,27,87,80,70,29.95,29.82,29.65,10,10,7,18,12,24,0.00,4,,225
2014-1-13,46,40,35,39,34,30,93,74,61,29.77,29.65,29.57,10,10,10,15,10,22,0.00,2,,210
2014-1-14,39,32,26,34,28,19,93,78,64,29.79,29.73,29.67,10,9,4,24,4,32,0.00,4,Rain,217
2014-1-15,30,26,21,21,19,14,86,73,55,30.00,29.90,29.74,10,9,1,26,17,34,0.00,7,Snow,246
2014-1-16,28,24,19,27,19,12,100,82,68,29.95,29.76,29.64,10,7,0,17,11,23,0.00,8,Snow,193
2014-1-17,30,22,15,27,19,10,93,78,69,29.92,29.77,29.62,10,8,2,18,9,23,0.00,7,Snow,239
2014-1-18,19,12,6,16,10,3,93,82,68,29.95,29.89,29.78,10,9,2,14,6,18,0.00,5,Snow,227
2014-1-19,30,19,10,23,18,10,100,83,74,29.77,29.67,29.53,10,7,2,31,8,40,0.00,5,Snow,230
2014-1-20,33,22,12,28,20,9,93,78,64,30.01,29.78,29.50,10,8,1,17,9,23,0.00,8,Snow,317
2014-1-21,12,6,0,9,-2,-9,85,66,52,30.17,30.10,29.99,10,10,4,15,7,20,0.00,4,Snow,360
2014-1-22,10,2,-7,9,-1,-11,92,76,52,30.17,30.03,29.93,10,7,1,13,2,17,0.00,5,Snow,195
2014-1-23,15,9,3,9,3,-2,92,77,62,30.45,30.23,29.93,10,9,2,16,3,18,0.00,5,Snow,284
2014-1-24,17,8,-2,12,-1,-9,85,69,53,30.44,30.10,29.57,10,8,2,28,12,38,0.00,3,Snow,223
2014-1-25,28,18,8,25,12,-2,93,76,49,29.77,29.47,29.30,10,6,0,26,19,36,0.00,7,Snow,265
2014-1-26,28,14,1,25,10,-2,92,80,68,29.78,29.56,29.37,10,8,1,18,4,28,0.00,7,Snow,218
2014-1-27,28,12,-4,25,2,-9,93,74,52,30.30,29.96,29.39,10,6,0,25,15,37,0.00,5,Snow,275
2014-1-28,3,-3,-9,-8,-12,-17,84,65,51,30.37,30.29,30.20,10,10,10,16,6,22,0.00,0,,238
2014-1-29,15,6,-2,1,-3,-9,72,63,49,30.20,30.15,30.11,10,9,4,25,15,31,0.00,0,,238
2014-1-30,28,19,10,21,7,0,86,62,46,30.16,29.99,29.80,10,10,2,25,9,31,0.00,2,Snow,199
2014-1-31,35,32,28,28,24,18,100,78,60,30.12,30.03,29.85,10,8,1,16,9,24,0.00,6,Snow,240